CAPE
660 858 590 637 909 1108 879 495 681 930 1636 1367 1410 1389 1447 1664 1284 1939 2647 2671 2658 2533 3246 2504 3085 3169 2907 3105 2979 3055 4356 2498 2615 2888 2930 3119 2978 2935 2944 2572 2382 1993
786 887 898 565 785 1048 1217 718 813 574 1538 1643 1178 1366 1702 1836 1560 1497 2497 2640 2743 2619 2949 3010 2786 2888 3078 3114 3152 2871 3029 3658 3121 3164 2607 3114 3014 2977 2797 2818 2695 2404
826 893 863 669 683 812 1412 1182 1121 785 1127 1744 1603 1097 1093 1512 1666 1828 2233 2502 2594 2564 2774 3114 3095 3105 3125 3110 3121 3255 2980 3199 2744 2927 2798 2651 2757 2830 2872 3074 2698 2492
861 803 856 781 670 751 905 1635 1483 1279 1215 1579 1863 1706 1188 1294 1162 2193 1945 2972 2390 2396 2827 2835 3252 3219 3231 3301 3185 3111 3296 3215 3193 2864 3349 3133 3049 2851 2654 2554 2755 2722
960 828 800 851 753 873 744 1379 1835 1625 1537 1589 1812 1986 1752 1313 1271 1151 2073 2529 2273 2341 2723 2785 3130 3253 3267 3251 3384 3023 3248 3195 3316 3168 3211 3345 2968 2978 3048 3231 3193 3045
1155 974 919 889 894 1051 950 1058 1795 1966 1782 1747 1684 2057 2034 1556 1432 1005 2064 2373 2203 2331 2658 2740 2957 3168 3287 3162 3294 3089 3084 3282 3200 3273 3191 3316 3458 3223 3198 3048 2926 3063
1364 1272 1177 1102 1135 1225 1202 1099 1467 2093 2007 1870 1699 1683 2154 1780 1556 1180 1516 2153 2321 2375 2568 2726 2792 3024 3212 3168 3128 3068 3020 3144 3095 3177 3127 3008 3349 3302 3291 3116 2953 2764
1471 1442 1411 1302 1284 1398 1511 1356 1509 1872 2105 1910 1768 1472 1781 1937 1590 1466 1398 1910 2216 2346 2528 2615 2705 2761 3092 3058 3097 2984 2922 3092 2797 2973 2962 2820 3082 3165 3309 3314 3156 2738
1511 1475 1470 1417 1373 1462 1631 1602 1667 1823 2012 1897 1768 1569 1258 1612 1817 1725 1568 1839 1939 2197 2282 2507 2618 2642 2756 2876 2893 2960 2863 3003 2893 3155 3000 2884 2964 3018 2993 2943 3035 3112
1554 1482 1473 1440 1387 1482 1716 1794 1834 1937 2028 1917 1751 1644 1322 1217 1815 1823 1800 1857 1876 2038 2141 2168 2348 2507 2519 2549 2742 2786 2853 2899 2860 2760 3040 2841 2976 3085 3038 2950 2830 2839
1656 1458 1454 1470 1443 1472 1728 1921 2000 2070 2140 1976 1736 1724 1540 1267 1511 1744 1998 1988 1954 2004 2093 2071 2120 2364 2406 2380 2526 2710 2804 2852 2828 2692 2607 2830 2832 2863 3475 3115 2990 2861
1788 1533 1433 1448 1487 1486 1645 1872 2041 2124 2180 2164 1820 1700 1710 1482 1292 1594 1897 2139 2086 2120 2104 2059 2113 2291 2345 2289 2326 2603 2726 2810 2840 2753 2539 2391 2711 2853 3076 3097 3074 3041
1956 1672 1496 1450 1489 1490 1562 1734 1900 2049 2089 2197 2042 1724 1675 1646 1355 1364 1611 2072 2154 2162 2186 2053 2093 2227 2280 2232 2226 2379 2628 2750 2796 2774 2790 2560 2363 2659 2932 3074 3064 3018
2081 1812 1591 1464 1465 1475 1548 1669 1802 2008 2021 2034 2085 1855 1586 1596 1528 1325 1351 1870 2110 2093 2189 2102 1976 2179 2148 2116 2086 2183 2441 2649 2696 2718 2700 2722 2586 2506 2675 2877 2965 2951
2171 1924 1658 1523 1580 1556 1591 1668 1754 2079 2154 1997 2008 1914 1600 1465 1535 1469 1346 1581 2035 2063 2113 2144 1963 1934 2156 2068 2011 2038 2184 2446 2584 2648 2694 2675 2623 2551 2572 2660 2750 2744
2231 2006 1772 1668 1639 1610 1638 1757 1809 2020 2279 2147 1982 1890 1638 1423 1451 1583 1532 1527 1814 2009 2022 2158 2045 1851 2132 2158 2046 2037 2073 2192 2398 2479 2585 2666 2655 2563 2531 2627 2672 2698
2303 2062 1837 1799 1792 1698 1672 1770 1819 1890 2101 2198 2038 1877 1674 1430 1409 1487 1666 1719 1773 1869 1895 1971 2181 2138 2036 2198 2183 2102 2082 2072 2170 2347 2418 2532 2619 2631 2546 2488 2621 2720
2468 2117 1884 1881 1902 1844 1760 1818 1915 1884 1934 2118 2081 1963 1821 1530 1367 1360 1556 1776 1942 1962 1866 1833 1951 2176 2199 2217 2308 2264 2164 2133 2059 2180 2307 2336 2391 2490 2515 2443 2422 2542
2706 2274 1962 1958 1997 1985 1888 1860 2014 2005 1894 2083 2262 2174 2007 1762 1450 1454 1556 1666 1948 2178 2089 1962 1928 2053 2280 2294 2347 2399 2353 2187 2036 2012 2228 2301 2283 2245 2288 2423 2449 2448
2864 2465 2168 2106 2149 2123 2030 1939 2013 2118 1988 2013 2338 2306 2182 1976 1684 1410 1679 1703 1844 2206 2383 2312 2199 2216 2348 2406 2385 2424 2468 2349 2060 1905 1930 2239 2360 2326 2263 2288 2434 2462
2909 2623 2236 2267 2274 2283 2199 2054 1990 2084 2079 1992 2210 2372 2274 2098 1850 1537 1620 1862 1861 2052 2413 2570 2523 2485 2518 2555 2518 2463 2462 2486 2228 1981 1834 1875 2274 2502 2476 2382 2325 2391
2891 2667 2383 2404 2363 2407 2368 2231 2069 2070 2190 2115 2034 2283 2316 2167 1920 1711 1485 1780 2026 2048 2190 2492 2621 2628 2639 2699 2723 2633 2521 2436 2342 2160 2000 1915 1895 2178 2580 2594 2479 2343
3048 2706 2533 2533 2429 2496 2524 2409 2216 2120 2230 2274 2076 2115 2309 2197 2026 1836 1599 1530 1854 2219 2195 2284 2509 2693 2698 2741 2888 2982 2919 2746 2480 2261 2198 2218 2321 2162 2225 2532 2633 2513
3278 3061 2884 2723 2514 2537 2622 2590 2406 2222 2252 2439 2256 2034 2244 2302 2126 1916 1807 1669 1583 1846 2362 2302 2333 2529 2734 2746 2718 2825 2918 2847 2690 2441 2366 2322 2299 2475 2724 2924 3134 3608
3462 3270 3093 2937 2706 2590 2647 2729 2625 2392 2260 2424 2444 2141 2057 2390 2380 2205 2048 1944 1774 1673 1847 2354 2421 2399 2471 2607 2610 2531 2566 2624 2594 2491 2389 2395 2365 2268 2240 2339 2437 3145
3602 3484 3298 3142 2944 2728 2706 2775 2785 2612 2374 2352 2446 2330 2049 2129 2501 2412 2281 2198 2114 1984 1847 1793 2004 2410 2454 2380 2499 2532 2525 2483 2496 2433 2397 2426 2439 2396 2238 2057 1956 2016
Wind_Speed
4 3 4 6 7 7 6 5 5 4 3 4 4 4 5 4 6 6 7 7 6 4 2 4 3 3 4 3 4 3 5 9 9 9 9 9 8 7 7 7 7 8
5 4 4 6 8 9 8 7 6 5 4 4 3 3 3 3 6 6 7 7 6 6 4 4 5 5 5 6 6 7 8 8 8 9 10 9 9 8 8 7 7 7
7 5 4 5 6 7 9 8 8 7 6 4 4 3 3 2 3 5 5 7 7 7 7 7 7 8 8 9 9 8 10 9 10 10 11 12 11 10 8 7 7 6
7 6 5 5 6 7 8 9 9 8 7 7 6 5 4 2 2 2 4 6 6 7 8 8 8 9 9 9 8 9 10 10 10 11 10 12 12 11 11 10 9 8
7 6 5 6 7 7 8 8 9 9 8 8 7 7 6 5 3 2 2 4 5 6 7 7 7 8 8 8 8 9 9 9 10 10 10 11 12 11 11 10 10 10
8 6 6 6 7 8 8 8 9 9 8 8 8 8 8 7 5 3 2 2 3 4 5 6 6 6 7 7 7 8 8 9 10 10 10 10 11 10 9 9 11 12
8 8 7 6 7 7 7 8 9 10 9 8 8 8 9 8 7 5 3 2 2 2 3 4 5 5 6 6 7 7 8 8 9 10 10 10 9 9 9 9 10 11
8 9 8 7 7 7 8 8 9 10 10 9 9 8 9 9 8 6 4 3 2 1 1 2 4 4 5 5 7 7 8 7 8 10 11 11 9 9 10 8 8 10
9 9 9 8 8 7 8 9 10 11 11 10 9 9 9 10 9 8 7 5 4 3 3 3 4 5 5 6 8 8 9 9 9 9 11 11 10 11 10 8 6 6
9 10 10 9 8 8 9 10 10 11 11 11 10 10 10 10 11 10 9 8 6 5 5 4 5 5 6 8 9 10 10 10 10 9 9 11 11 10 10 8 7 5
9 10 10 10 9 9 9 10 11 12 12 11 11 10 10 11 12 12 12 10 8 7 7 6 6 7 8 9 10 10 11 10 9 9 9 10 11 10 9 8 7 6
9 10 10 11 11 10 10 11 12 12 13 12 11 11 11 11 13 14 14 12 11 9 8 8 7 7 9 10 11 11 11 10 9 9 9 10 10 10 10 9 8 7
8 9 10 11 11 12 12 12 12 12 13 13 12 11 11 11 12 13 15 15 14 12 10 9 8 8 9 10 11 11 11 11 10 9 8 8 9 9 9 9 8 7
8 9 9 10 11 12 12 13 12 13 14 14 14 12 11 12 13 13 15 16 16 14 13 11 10 9 10 11 11 12 11 11 11 10 9 7 6 7 8 8 8 7
7 7 7 9 11 11 11 12 12 13 15 15 15 14 13 13 14 15 15 16 17 16 15 14 11 10 12 12 12 12 12 11 11 10 9 8 6 5 6 6 7 7
6 7 7 8 9 10 10 12 12 13 15 15 16 15 15 16 16 16 16 16 17 17 16 16 14 13 13 15 14 13 12 11 10 10 9 8 7 6 5 5 6 6
6 6 7 8 9 8 9 11 12 12 13 15 16 16 16 17 18 18 17 17 17 18 16 15 15 15 16 16 15 14 13 11 10 9 9 9 8 8 6 5 4 5
7 7 7 8 8 8 8 9 12 12 12 14 15 16 17 18 19 19 19 19 18 18 17 15 14 15 18 17 16 14 13 12 10 9 9 9 9 9 7 6 5 4
8 7 7 7 8 9 9 8 9 10 11 13 14 17 18 17 17 20 20 20 19 19 18 17 15 16 18 18 16 15 13 12 10 10 10 9 9 9 9 8 7 6
10 8 7 7 8 9 9 9 8 9 10 12 15 17 18 17 16 18 20 20 20 20 19 18 16 18 20 19 17 15 13 12 10 10 10 10 10 10 9 10 10 9
11 10 8 7 8 9 9 9 9 8 10 11 14 15 17 18 17 16 19 20 20 21 20 19 17 20 22 21 18 16 13 12 10 10 10 11 12 12 11 11 11 11
13 12 11 9 9 9 9 9 10 10 10 11 13 14 16 18 17 17 17 19 20 20 20 19 18 22 22 22 20 17 16 14 12 11 11 11 13 14 14 12 12 12
14 13 13 12 11 10 9 10 11 11 11 12 12 14 15 16 17 17 17 18 19 20 19 19 19 21 22 22 21 19 18 15 14 13 12 11 13 15 15 15 14 13
15 14 14 15 13 10 10 11 11 12 12 13 12 13 14 15 17 18 18 17 17 18 19 20 19 22 22 22 22 21 21 17 15 15 12 12 12 15 17 17 16 13
16 15 15 16 15 13 13 13 13 13 14 14 13 13 13 16 17 18 18 17 16 16 18 20 20 22 21 21 21 23 21 18 17 16 13 12 14 13 14 15 15 16
17 15 15 16 16 16 16 15 15 15 15 15 15 14 14 16 17 17 17 16 16 15 16 17 19 24 20 19 21 22 22 19 18 17 13 13 15 15 14 14 14 15
Wind_Direction
292 266 270 256 251 245 249 246 230 245 255 280 317 355 360 359 7 4 1 1 7 22 358 6 3 15 34 44 48 55 52 46 43 40 40 40 46 48 62 70 70 54
298 286 253 254 250 244 252 260 258 260 258 277 308 310 318 322 9 9 7 11 18 34 42 38 47 56 71 71 75 73 82 76 57 56 48 52 58 57 63 72 71 86
287 277 274 273 267 271 272 270 270 270 273 284 290 282 280 302 344 17 20 20 33 47 58 68 68 74 75 80 78 76 69 74 70 67 54 56 64 68 80 88 95 86
288 294 291 283 271 277 272 271 276 278 281 275 286 293 300 302 341 5 30 34 46 59 71 73 74 76 75 73 69 66 65 63 65 67 66 63 60 63 71 82 89 99
287 291 285 280 272 276 276 279 289 290 296 300 291 292 297 303 337 18 24 55 55 65 74 72 75 71 66 67 61 57 59 57 62 63 67 64 62 61 70 72 84 88
264 276 283 283 279 283 288 291 290 293 296 293 298 287 299 307 321 358 2 34 63 61 67 74 71 66 55 56 55 50 48 50 54 57 63 63 63 59 65 66 72 80
274 276 285 274 276 284 293 295 290 292 295 289 281 283 287 300 307 332 339 347 15 55 56 66 62 60 53 43 47 46 46 43 47 48 52 61 60 64 65 59 61 67
270 269 277 275 286 285 290 291 289 289 293 286 288 289 279 293 302 301 307 314 305 327 14 29 41 43 35 28 32 35 41 45 45 42 44 50 52 58 62 64 54 50
263 268 272 284 296 286 293 291 289 289 290 297 292 286 281 281 291 295 297 298 287 282 289 323 356 13 15 14 23 23 28 37 41 36 35 38 41 47 54 60 61 51
276 273 283 286 294 285 293 291 287 288 287 299 299 289 290 280 282 291 290 290 288 280 282 295 324 346 358 4 10 15 19 23 30 35 30 30 32 37 41 44 51 52
294 287 289 293 292 278 289 288 287 288 285 296 299 296 294 285 279 283 288 289 285 281 283 290 313 336 348 354 358 4 8 10 16 25 30 25 26 29 29 31 36 35
301 296 298 298 290 279 281 282 283 287 289 289 297 298 294 292 286 282 285 290 289 284 285 290 299 321 337 343 348 350 354 358 3 13 24 25 22 22 21 19 27 28
313 305 293 292 289 281 272 272 278 285 291 293 293 296 294 292 288 286 279 286 290 287 285 286 289 304 316 327 331 335 343 348 352 2 12 17 22 19 18 14 15 19
336 316 300 290 281 278 275 277 277 277 283 286 288 296 293 291 290 288 280 280 286 288 287 284 283 285 295 306 313 320 328 338 345 349 358 7 12 15 14 11 8 8
335 328 309 292 283 277 277 278 277 273 274 277 282 288 283 285 284 285 283 282 282 285 286 284 285 282 278 287 296 306 312 328 338 341 342 350 359 4 7 5 3 5
326 329 328 315 298 286 275 271 271 270 270 273 277 280 280 278 281 283 285 286 284 284 284 280 280 274 283 305 301 294 301 310 322 333 332 329 336 345 352 352 358 355
303 326 329 332 323 301 279 269 266 263 264 271 273 273 276 272 274 284 285 282 285 284 286 281 277 275 299 297 304 311 298 296 306 321 323 320 316 323 339 340 332 339
294 314 331 334 324 318 303 280 266 263 259 264 272 274 268 266 267 276 281 279 278 282 284 282 275 285 297 297 301 305 302 293 292 299 308 311 308 311 316 319 320 314
283 305 329 333 327 318 308 296 282 273 266 258 271 271 266 267 263 263 273 276 277 280 283 282 276 286 293 298 299 302 308 302 283 288 295 303 305 305 300 304 304 301
281 291 316 328 314 311 312 317 307 293 276 259 257 263 269 268 264 260 263 271 276 277 278 278 279 282 295 298 299 302 304 298 279 290 292 294 300 298 291 293 297 302
285 287 294 299 303 307 313 320 320 299 286 270 261 266 272 272 269 264 259 264 270 272 271 274 274 289 294 300 302 303 304 290 274 275 281 285 288 290 290 292 291 293
284 282 281 281 287 297 310 317 314 309 297 281 269 263 265 267 266 265 262 261 264 269 271 273 272 291 293 297 302 304 304 275 270 273 277 280 282 282 285 285 288 292
280 278 277 279 279 287 304 309 307 307 296 281 280 272 269 273 273 270 263 261 260 262 270 268 266 281 294 296 299 305 286 268 271 272 278 282 279 279 282 282 283 288
274 270 273 275 275 284 294 293 296 293 295 284 287 281 276 275 273 270 268 266 266 262 263 264 264 272 293 295 299 299 291 279 272 274 280 283 280 272 271 271 272 291
268 262 263 271 276 277 276 285 293 293 287 283 283 280 273 267 269 271 270 267 268 268 268 265 260 266 288 296 300 298 293 276 274 271 275 276 274 272 270 267 266 267
267 263 257 263 271 269 267 271 272 276 286 288 283 277 271 268 269 271 277 272 269 268 264 264 258 254 271 294 296 297 303 282 268 269 269 270 268 269 268 266 266 265